Location: Bright Sky Observatory
(40.7821°N, 74.2425°W)
Time: 07:12:59
(UTC-04:00)

Daily predictions for brighter satellites

Satellite Brightness Start Highest point End
(mag) Time Altitude Azimuth Time Altitude Azimuth Time Altitude Azimuth
Cosmos 1934 Rocket 4.1 19:30:45 10° SSE 19:36:43 56° E 19:42:38 10° NNE
Okean 3 Rocket 4.3 19:38:42 10° NNE 19:42:40 32° ENE 19:46:36 10° SE
Cosmos 1867 4.5 19:38:46 10° SSE 19:43:14 27° ESE 19:47:44 10° NE
FengYun 1-2 T 4.4 19:38:01 10° SSE 19:43:25 56° ENE 19:48:55 10° N
NOAA 12 4.5 19:42:21 10° S 19:47:39 72° WSW 19:52:57 10° NNW
H-2A R/B 3.3 19:44:03 10° SE 19:47:40 38° ENE 19:51:20 10° N
Spot 2 Rocket 3.9 19:43:30 10° SE 19:48:18 43° ENE 19:53:07 10° N
Tiangong 1 2.0 19:48:34 10° W 19:51:21 39° SSW 19:54:06 10° SE
Cosmos 1707 4.1 19:49:12 10° NNW 19:52:55 43° W 19:56:36 10° SSW
Abrixas 3.0 19:50:34 10° NW 19:53:17 41° NNE 19:55:43 12° E
Meteor 1-24 Rocket 3.7 19:48:36 10° N 19:54:08 85° E 19:59:51 10° S
Cosmos 2082 Rocket 3.1 19:49:16 10° N 19:54:16 30° ENE 19:59:13 10° ESE
Cosmos 1812 Rocket 3.7 19:50:49 10° S 19:55:14 82° W 19:59:39 10° N
Cosmos 1076 Rocket 4.4 19:52:49 10° NNE 19:56:30 28° ENE 20:00:09 10° SE
Cosmos 1758 4.0 19:53:00 10° SSE 19:56:31 31° E 20:00:03 10° NNE
Lacrosse 5 2.1 19:51:48 10° SW 19:56:52 76° NW 20:01:57 10° NE
Helios 1B rocket 3.7 19:53:46 10° NE 19:56:55 21° E 20:00:01 10° SE
Cosmos 990 Rocket 4.3 19:51:50 10° SSW 19:57:05 76° WNW 20:02:21 10° NNE
FREGAT/IRIS 3.7 19:58:16 10° S 20:01:14 48° W 20:04:14 10° NNW
Cosmos 1821 Rocket 4.4 19:55:50 10° SSW 20:02:11 73° W 20:08:33 10° N
Lacrosse 4 Rocket 3.7 20:00:59 10° WSW 20:04:26 26° NW 20:07:54 10° N
Cosmos 1953 2.9 20:00:46 10° SSE 20:04:28 36° E 20:08:12 10° NNE
Envisat 4.1 20:02:47 11° ESE 20:06:31 24° ENE 20:10:33 10° NNE
GP-B 4.0 20:04:21 10° SE 20:08:08 28° E 20:11:56 10° NNE
USA 186 2.3 20:08:21 20° E 20:08:35 20° ENE 20:10:21 10° NNE
Helios 1A 3.7 20:06:46 10° SE 20:10:29 33° ENE 20:14:15 10° N
Cosmos 1939 Rocket 4.5 20:09:38 15° E 20:11:11 18° ENE 20:14:02 10° NNE
Cosmos 1766 Rocket 4.4 20:07:56 10° NNE 20:11:56 31° ENE 20:15:22 13° SE
CZ-3 Stage 3 4.4 19:15:11 10° WSW 20:13:01 58° S 20:20:18 16° ESE
Cosmos 1271 Rocket 4.0 20:10:41 10° SE 20:13:47 22° E 20:16:56 10° NE
Resurs 01 Rocket 1.5 20:09:49 10° SSE 20:14:12 80° ENE 20:18:39 10° N
Cosmos 1125 Rocket 3.6 20:09:23 10° S 20:14:24 52° ESE 20:19:28 10° NNE
Cosmos 1766 4.0 20:12:16 10° SSW 20:16:04 56° W 20:19:55 10° N
Cosmos 1048 Rocket 4.3 20:13:10 10° N 20:18:06 45° ENE 20:22:08 15° SE
Cosmos 1605 Rocket 4.0 20:14:00 10° S 20:20:15 86° E 20:26:39 10° N
Geosat 4.1 20:15:22 10° NE 20:20:18 54° ESE 20:25:12 10° S
Cosmos 2100 Rocket 4.5 20:16:42 10° SSE 20:22:25 38° E 20:28:12 10° NNE
Cosmos-2242 3.7 20:18:45 10° SSE 20:22:29 31° E 20:26:17 10° NNE
ERS-1 Rocket 4.4 20:23:22 18° E 20:24:49 20° ENE 20:28:23 10° NNE
Lacrosse 5 rocket 2.7 20:21:55 10° NNW 20:25:07 23° NNE 20:26:41 18° ENE
Fregat R/B Cluster 11 4.3 20:20:18 10° SSW 20:27:07 68° ESE 20:30:33 10° NE
SeaSat 1 3.2 20:23:46 10° S 20:28:35 54° WSW 20:33:26 10° NW
Cosmos 1674 3.0 20:26:31 10° N 20:30:08 42° E 20:31:53 25° SE
SAR-Lupe-4 3.5 20:31:34 18° SSE 20:34:06 66° ENE 20:37:41 10° N
RESURS DK-1 4.4 20:35:54 10° NW 20:39:26 27° WSW 20:42:56 10° SSW
Cosmos 2344 4.4 20:35:01 10° SW 20:42:31 55° NW 20:51:08 10° NNE
CZ-2D R/B 3.7 20:39:09 10° S 20:42:58 62° WSW 20:46:50 10° NNW
Cosmos 1743 Rocket 4.3 20:39:28 10° NNE 20:43:27 31° ENE 20:43:50 31° E
Cosmos 1802 Rocket 4.3 20:37:51 10° SSE 20:43:33 43° E 20:49:18 10° NNE
BREEZE-M DEB (TANK) 4.0 20:42:31 10° NNW 20:44:17 18° NNE 20:44:40 18° NNE
Meteor 1-21 Rocket 4.3 20:38:29 10° N 20:44:21 85° E 20:50:16 10° S
Meteor 1-29 2.9 20:42:39 10° NNE 20:46:06 60° E 20:48:18 20° S
CZ-3B DEB 3.8 20:37:21 10° WSW 20:47:14 43° NW 20:51:58 10° NE
Cosmos 1805 4.3 20:44:21 10° SSW 20:48:05 46° W 20:51:53 10° N
Cosmos 1818 3.8 20:45:32 10° NW 20:50:58 71° WSW 20:54:41 20° SSE
GPS 2-05 Rocket1 4.0 20:48:24 10° SW 20:51:22 30° S 20:51:22 30° S
COSMOS 2487 2.3 20:48:41 10° NNW 20:52:17 89° E 20:53:15 46° SSE
ALOS 4.4 20:48:32 10° SSW 20:52:27 26° W 20:56:24 10° NW
SAR-Lupe-1 4.0 20:51:15 29° S 20:52:58 82° WSW 20:56:35 10° NNW
Cosmos 2251 Rocket 4.4 20:48:19 10° N 20:52:58 30° ENE 20:53:40 29° ENE
Cosmos 2061 Rocket 4.0 20:50:43 10° S 20:56:59 62° E 21:03:19 10° NNE
Cosmos 1269 Rocket 4.1 20:51:55 10° NNW 20:57:13 80° WSW 21:00:49 21° SSE
Meteor 1-4 Rocket 3.9 20:56:17 10° SSW 20:59:32 38° WNW 21:02:49 10° N
Timation 2 Rocket 3.8 20:55:59 10° NNW 21:02:19 83° ENE 21:05:26 31° SSE
Cosmos 1833 Rocket 2.6 20:57:05 10° NNW 21:02:44 88° WSW 21:05:39 30° SSE
Cosmos 1470 2.7 21:00:38 14° S 21:04:03 87° W 21:08:03 10° N
Cosmos 1408 Rocket 3.8 21:00:25 10° NNW 21:04:53 70° W 21:07:46 21° S
Cosmos 2278 Rocket 4.2 21:03:23 10° WSW 21:08:18 30° NW 21:13:15 10° N
Cosmos 1340 Rocket 2.6 21:07:50 10° N 21:11:54 88° E 21:12:09 78° SSE
CZ-4B DEB 3.4 21:12:02 51° W 21:12:02 51° W 21:14:59 10° NNW
Cosmos 372 Rocket 4.4 21:07:01 10° SSW 21:12:05 63° WNW 21:17:12 10° NNE
Cosmos 1733 3.4 21:10:59 25° SSW 21:13:05 70° W 21:16:59 10° N
Cosmos 1459 Rocket 3.9 21:07:39 10° S 21:13:56 90° ESE 21:20:09 10° N
Cosmos 1842 Rocket 4.3 21:18:20 39° NE 21:18:20 39° NE 21:21:19 10° NNE
USA 215 3.1 21:10:35 10° NE 21:17:08 73° SE 21:23:37 10° SW
ATLAS 5 CENTAUR R/B 1.9 21:14:46 10° SW 21:19:26 74° NW 21:24:32 10° NNE
Cosmos 2173 Rocket 4.0 21:13:32 10° S 21:19:42 84° W 21:26:00 10° N
Cosmos 158 Rocket 4.4 21:15:12 10° NNW 21:20:15 59° WSW 21:22:45 29° S
ISS -1.8 21:17:06 10° SW 21:18:25 22° SW 21:18:25 22° SW
Cosmos 2151 4.3 21:20:51 10° N 21:23:14 29° NNE 21:23:14 29° NNE
Helios 1B rocket 4.3 21:28:36 10° N 21:32:14 31° WNW 21:35:52 10° SW
Meteor 1-11 4.1 21:31:10 10° N 21:36:36 69° ENE 21:36:36 69° ENE
Cosmos 494 Rocket 4.0 21:32:40 10° NNW 21:37:19 67° NNE 21:37:19 67° NNE
Cosmos 2082 Rocket 3.3 21:33:10 10° NW 21:38:26 40° WSW 21:41:10 24° SSW
Lacrosse 5 4.2 21:36:49 10° WNW 21:40:36 20° NNW 21:44:23 10° NNE
SPOT 5 3.6 21:45:02 49° NNE 21:45:02 49° NNE 21:49:15 10° N
Envisat 4.1 21:42:59 26° SSW 21:45:16 40° W 21:50:04 10° NNW
Cosmos 1939 Rocket 4.2 21:45:32 36° WSW 21:45:50 37° W 21:49:41 10° NNW
Meteor 1-16 Rocket 4.3 21:44:17 47° SSW 21:46:04 82° W 21:52:03 10° N
USA 267 3.9 21:48:09 39° NE 21:49:19 42° NNE 21:55:22 10° NW
MetOp-A 4.2 21:50:03 68° NNE 21:50:03 68° NNE 21:54:46 10° N
ARGOS 3.8 21:51:33 45° NNE 21:51:33 45° NNE 21:55:31 10° N
H-2A R/B 3.5 21:52:51 27° NNE 21:52:51 27° NNE 21:55:43 10° N
Cosmos 2016 Rocket 4.2 21:47:02 20° SSW 21:51:30 66° W 21:57:39 10° N
Cosmos 1725 Rocket 3.9 21:59:08 75° SW 21:59:37 82° W 22:05:52 10° N
Terra 4.2 22:04:46 14° NNE 22:04:46 14° NNE 22:05:36 10° NNE
ERS-1 Rocket 3.7 22:03:22 50° W 22:03:22 50° W 22:08:06 10° NNW
Lacrosse 5 rocket 3.5 22:00:50 10° NW 22:02:25 22° WNW 22:02:25 22° WNW
Tsikada Rocket 4.2 22:11:30 10° NNW 22:17:28 66° W 22:17:28 66° W
Cosmos 2369 Rocket 4.5 22:34:54 15° NNE 22:34:54 15° NNE 22:35:45 10° NNE
USA 215 4.4 22:53:52 10° NE 22:59:50 39° NNW 23:05:46 10° W
